Location: Pasarilla del Rebollar
(40.6790°N, 5.0062°W)
Time: 11:47:42
(UTC+00:00)

Cosmos 2322 Rocket - Pass Details

Date: 22 April 2026
Orbit: 832 x 849 km, 71.0° (Epoch: 15 May)

Event Time Altitude Azimuth Distance (km) Brightness Sun altitude
Rises 04:29:15 0° 318° (NW) 3,396 5.2 -11.7°
Reaches altitude 10° 04:32:40 10° 297° (WNW) 2,459 4.3 -11.1°
Maximum altitude 04:35:52 16° 262° (W) 2,086 3.7 -10.6°
Enters shadow 04:38:02 13° 237° (WSW) 2,264 3.8 -10.2°
